[[{"header":{"parameterUnit":"m.s-1","parameterCategory":1,"la1":30.2991,"la2":30.254,"lo1":-89.0895,"lo2":-89.0444,"dy":0.0017,"dx":0.0017,"nx":28,"ny":28,"refTime":"2024-08-27T21:00:00:Z","depth":0,"parameterNumber":2,"parameterNumberName":"U-component_of_WINDS"},"data":[0,0,0,0,0,0,0,0,0,0,0,0,0,0,0,0,0,0,0,0,0,0,0,0,0,0,0,0,0,0,0,0,0,0,0,0,0,0,0,0,0,0,0,0,0,0,0,0,0,0,0,0,0,0,0,0,0,0,-4.8684,-4.8685,0,-4.8771,-4.8772,-4.8773,-4.8749,-4.8748,-4.8746,-4.8744,-4.8829,-4.8833,-4.8837,0,0,0,0,0,0,0,0,0,0,0,0,0,-4.8494,-4.8498,-4.8684,-4.8685,-4.8686,-4.8771,-4.8772,-4.8773,-4.875,-4.8748,-4.8746,-4.8744,-4.8828,-4.8832,-4.8837,0,0,0,0,0,0,0,0,0,0,0,0,0,-4.8578,-4.8499,-4.8684,-4.8685,-4.8686,-4.8771,-4.8772,-4.8773,-4.875,-4.8748,-4.8745,-4.8743,-4.8826,-4.8832,-4.8838,-4.8925,0,0,-4.8855,-4.8858,0,0,0,0,0,0,0,0,-4.8574,-4.8585,-4.8684,-4.8685,-4.8686,-4.8747,-4.8736,-4.8824,-4.8751,-4.8726,-4.8744,-4.8741,-4.8804,-4.8811,-4.8833,-4.8929,-4.8933,-4.8856,-4.8859,-4.8862,-4.8864,0,0,0,0,0,0,0,-4.8568,-4.8581,-4.8718,-4.8685,-4.8687,-4.868,-4.8689,-4.8753,-4.8778,-4.8728,-4.8726,-4.8737,-4.8804,-4.8827,-4.8835,-4.8934,-4.8856,-4.8861,-4.8864,-4.8867,-4.9106,-4.9109,0,0,0,0,0,0,-4.8562,-4.8577,-4.8716,-4.8721,-4.8623,-4.8685,-4.8695,-4.873,-4.8777,-4.8782,-4.8739,-4.8736,-4.8819,-4.8828,-4.8838,-4.8943,-4.8862,-4.8867,-4.8871,-4.9103,-4.9107,-4.911,0,0,0,0,0,0,-4.8558,-4.8574,-4.8712,-4.8649,-4.8666,-4.8691,-4.873,-4.8733,-4.8757,-4.8786,-4.879,-4.8759,-4.8817,-4.8829,-4.8904,-4.8945,-4.887,-4.8875,-4.91,-4.9104,-4.9108,-4.9154,0,0,0,0,0,0,-4.8552,-4.8573,-4.8607,-4.865,-4.8669,-4.8778,-4.8733,-4.8737,-4.8767,-4.8763,-4.8806,-4.881,-4.8816,-4.8895,-4.891,-4.8952,-4.888,-4.9096,-4.9102,-4.9107,-4.9149,-4.9159,-4.9168,0,0,0,0,0,-4.8546,-4.8616,-4.8609,-4.8626,-4.8713,-4.8781,-4.8792,-4.8798,-4.8771,-4.8805,-4.8824,-4.8809,-4.8939,-4.8903,-4.8919,-4.8964,-4.9093,-4.91,-4.9106,-4.9144,-4.9157,-4.9168,0,0,0,0,0,0,-4.8576,-4.8621,-4.8614,-4.8701,-4.8737,-4.8777,-4.882,-4.8812,-4.8855,-4.885,-4.8855,-4.8865,-4.8941,-4.896,-4.8919,-4.905,-4.9012,-4.9022,-4.9035,-4.9048,-4.9057,-4.905,-4.8885,0,0,0,0,0,-4.8594,-4.8646,-4.8682,-4.8755,-4.8774,-4.8794,-4.8823,-4.8826,-4.8863,-4.8878,-4.8902,-4.8937,-4.8986,-4.9018,-4.9065,-4.9152,-4.916,-4.919,-4.92,-4.9208,-4.9216,-4.9262,-4.9275,-4.9131,-4.9131,-4.9131,0,0,-4.8629,-4.866,-4.8693,-4.8762,-4.879,-4.8843,-4.8807,-4.8864,-4.8903,-4.8886,-4.8958,-4.8977,-4.9017,-4.9098,-4.9135,-4.9116,-4.9258,-4.9216,-4.9222,-4.9226,-4.927,-4.9284,-4.9296,-4.9135,-4.9135,-4.9134,0,0,-4.872,-4.875,-4.8813,-4.8843,-4.8887,-4.89,-4.8915,-4.8956,-4.8968,-4.9041,-4.9029,-4.9075,-4.9159,-4.9188,-4.9213,-4.9316,-4.9304,-4.9331,-4.9381,-4.9426,-4.9438,-4.9448,-4.9483,-4.9496,-4.934,-4.934,-4.934,0,-4.8758,-4.8839,-4.8846,-4.8905,-4.8936,-4.8924,-4.8988,-4.9016,-4.9072,-4.9093,-4.9071,-4.9177,-4.9203,-4.929,-4.9315,-4.9337,-4.9353,-4.9326,-4.9436,-4.9446,-4.9456,-4.9489,-4.9503,-4.9343,-4.9342,-4.9342,-4.9342,0,-4.8882,-4.8938,-4.8984,-4.904,-4.9076,-4.9137,-4.9153,-4.9188,-4.9187,-4.9202,-4.9275,-4.9307,-4.9359,-4.938,-4.9379,-4.9467,-4.9454,-4.9435,-4.9395,-4.9472,-4.9504,-4.9517,-4.9347,-4.9346,-4.9345,-4.9344,0,0,-4.8994,-4.9055,-4.9071,-4.9096,-4.9145,-4.9187,-4.9247,-4.93,-4.9329,-4.9369,-4.9418,-4.949,-4.9472,-4.9502,-4.9504,-4.9544,-4.9622,-4.9519,-4.952,-4.9536,-4.9719,-4.9732,-4.9747,-4.9615,-4.9617,-4.9619,-4.9715,0,-4.9088,-4.9196,-4.9205,-4.93,-4.9351,-4.9342,-4.9394,-4.9428,-4.9444,-4.9488,-4.9505,-4.9555,-4.9529,-4.9547,-4.9586,-4.9604,-4.9658,-4.9598,-4.9659,-4.9661,-4.9647,-4.9763,-4.9778,-4.9866,-4.9727,-4.9729,-4.9731,0,-4.9213,-4.9257,-4.9358,-4.9399,-4.9421,-4.9468,-4.9516,-4.956,-4.9598,-4.9607,-4.964,-4.9637,-4.9697,-4.9657,-4.974,-4.9698,-4.9724,-4.9737,-4.974,-4.9745,-4.9699,-4.9769,-4.9895,-4.9907,-4.9751,-4.9749,-4.9748,0,-4.9282,-4.9368,-4.9439,-4.9461,-4.9511,-4.9543,-4.9565,-4.9602,-4.9633,-4.9675,-4.9695,-4.9743,-4.9769,-4.9806,-4.9816,-4.9786,-4.9897,-4.9859,-4.9905,-4.9904,-4.9927,-4.9925,-5.0056,-4.9946,-4.9946,-4.9946,-4.9946,0,-4.9386,-4.9448,-4.9471,-4.9515,-4.9583,-4.9593,-4.966,-4.968,-4.9712,-4.9758,-4.9753,-4.9796,-4.9807,-4.9852,-4.986,-4.9926,-4.9938,-4.9946,-4.9947,-4.9945,-4.9944,-4.9961,-4.9954,-4.995,-4.9949,-4.9948,-4.9947,0,-4.9475,-4.9493,-4.957,-4.9611,-4.9623,-4.9671,-4.9706,-4.9747,-4.9763,-4.9821,-4.9835,-4.9859,-4.9911,-4.9926,-4.9988,-4.9994,-5.0071,-5.0067,-5.0058,-5.0057,-5.0102,-5.0097,-5.0247,-5.0267,-5.0146,-5.0147,-5.0148,0,-4.9539,-4.9586,-4.9633,-4.9664,-4.9688,-4.9738,-4.977,-4.9782,-4.9815,-4.9862,-4.9897,-4.995,-4.9992,-5.0076,-5.0098,-5.0146,-5.0142,-5.0191,-5.0149,-5.0145,-5.014,-5.0137,-5.0141,-5.0199,-5.02,-5.0201,-5.0202,0,-4.965,-4.9657,-4.9704,-4.9754,-4.9793,-4.9833,-4.9871,-4.9896,-4.9913,-4.995,-5.0004,-5.0037,-5.0102,-5.0153,-5.0202,-5.0222,-5.0214,-5.0215,-5.0228,-5.0226,-5.0218,-5.0222,-5.0078,-5.0211,-5.021,-5.021,-5.0209,-5.0209,-4.9727,-4.9769,-4.9808,-4.986,-4.9891,-4.9926,-4.9967,-4.9988,-5.0034,-5.0088,-5.0092,-5.0151,-5.0187,-5.0252,-5.0275,-5.032,-5.0305,-5.0324,-5.0329,-5.0333,-5.0336,-5.0213,-5.0329,-5.0329,-5.0329,-5.0329,-5.0329,0,-4.9837,-4.9862,-4.991,-4.9964,-5.0005,-4.9996,-5.0038,-5.0072,-5.0124,-5.016,-5.0202,-5.0264,-5.0314,-5.034,-5.0389,-5.042,-5.0418,-5.0432,-5.0429,-5.0434,-5.0347,-5.0331,-5.0434,-5.0434,-5.0434,-5.0434,-5.0434,-5.0434,-4.9899,-4.9968,-4.998,-5.0063,-5.0088,-5.0146,-5.0171,-5.0203,-5.0231,-5.0302,-5.0343,-5.0361,-5.0392,-5.0444,-5.0488,-5.0495,-5.0512,-5.0529,-5.0533,-5.0451,-5.044,-5.043,-5.0414,-5.0533,-5.0533,-5.0615,-5.0616,-5.0617]},{"header":{"parameterUnit":"m.s-1","parameterCategory":1,"la1":30.2991,"la2":30.254,"lo1":-89.0895,"lo2":-89.0444,"dy":0.0017,"dx":0.0017,"nx":28,"ny":28,"refTime":"2024-08-27T21:00:00:Z","depth":0,"parameterNumber":3,"parameterNumberName":"V-component_of_WINDS"},"data":[0,0,0,0,0,0,0,0,0,0,0,0,0,0,0,0,0,0,0,0,0,0,0,0,0,0,0,0,0,0,0,0,0,0,0,0,0,0,0,0,0,0,0,0,0,0,0,0,0,0,0,0,0,0,0,0,0,0,0.9485,0.9487,0,0.9658,0.966,0.9662,0.9735,0.9734,0.9734,0.9734,0.9913,0.9918,0.9923,0,0,0,0,0,0,0,0,0,0,0,0,0,0.922,0.9224,0.9485,0.9487,0.9489,0.9658,0.966,0.9662,0.9735,0.9734,0.9734,0.9733,0.9911,0.9917,0.9923,0,0,0,0,0,0,0,0,0,0,0,0,0,0.9358,0.9226,0.9484,0.9545,0.9552,0.9657,0.966,0.9663,0.9735,0.9734,0.9734,0.9733,0.9909,0.9916,0.9924,0.9981,0,0,0.9947,0.9951,0,0,0,0,0,0,0,0,0.935,0.9368,0.9534,0.9541,0.955,0.9674,0.9633,0.977,0.9735,0.9666,0.9734,0.9733,0.9834,0.9848,0.9881,0.999,0.9997,0.9948,0.9953,0.9956,0.9958,0,0,0,0,0,0,0,0.9341,0.9361,0.9553,0.9536,0.9546,0.9565,0.9584,0.9659,0.9751,0.9672,0.9677,0.9697,0.9838,0.9874,0.9886,1.0,0.9948,0.9955,0.9959,0.9962,1.0167,1.0168,0,0,0,0,0,0,0.9321,0.9352,0.9548,0.9558,0.9447,0.957,0.9592,0.9635,0.975,0.9767,0.9697,0.9699,0.9861,0.9877,0.9893,0.9969,0.9956,0.9963,0.9967,1.0166,1.0168,1.0168,0,0,0,0,0,0,0.9315,0.9337,0.9541,0.9457,0.9484,0.9575,0.9623,0.9638,0.9674,0.9769,0.9786,0.9716,0.9861,0.9882,0.9959,0.9977,0.9966,0.9973,1.0165,1.0167,1.0168,1.0122,0,0,0,0,0,0,0.9307,0.9335,0.9356,0.9457,0.9489,0.9603,0.9624,0.9642,0.9687,0.9692,0.9792,0.9808,0.9862,0.9948,0.9967,0.9987,0.9979,1.0164,1.0166,1.0168,1.0122,1.0121,1.0121,0,0,0,0,0,0.9297,0.9336,0.9357,0.938,0.9518,0.9604,0.9622,0.9684,0.9688,0.9711,0.9773,0.9805,0.9971,0.9955,0.9977,1.0,1.0164,1.0166,1.0167,1.0122,1.0121,1.0121,0,0,0,0,0,0,0.9236,0.9351,0.9375,0.9448,0.9516,0.9616,0.9647,0.968,0.9749,0.975,0.9824,0.9846,0.9918,0.9967,0.9946,1.0063,1.007,1.0077,1.0028,1.0028,1.0027,1.0015,0.9986,0,0,0,0,0,0.923,0.929,0.9388,0.9443,0.9476,0.9555,0.9595,0.9637,0.971,0.974,0.9807,0.9877,0.9946,0.999,1.0058,1.0129,1.0154,1.0156,1.0155,1.0154,1.0159,1.0203,1.0206,1.0175,1.0175,1.0175,0,0,0.9221,0.9291,0.9324,0.9432,0.949,0.9551,0.9579,0.9642,0.969,0.975,0.9827,0.9879,0.9963,1.0038,1.0075,1.0081,1.0173,1.0157,1.0155,1.0161,1.0206,1.0209,1.0211,1.0176,1.0176,1.0176,0,0,0.9234,0.9293,0.9346,0.9403,0.949,0.9543,0.9556,0.9652,0.9689,0.9768,0.9815,0.9872,0.9988,1.0047,1.0092,1.013,1.0163,1.015,1.0146,1.0188,1.0191,1.0193,1.0209,1.0213,1.0155,1.0155,1.0155,0,0.9211,0.9305,0.9369,0.9431,0.9478,0.9535,0.9591,0.9643,0.9748,0.978,0.9785,0.9934,0.9994,1.0085,1.0095,1.0128,1.0147,1.0139,1.0185,1.0188,1.0192,1.0208,1.0213,1.0153,1.0153,1.0153,1.0153,0,0.9274,0.9338,0.9371,0.9471,0.9522,0.9579,0.9654,0.9698,0.9735,0.9788,0.9869,0.9944,1.003,1.0054,1.0091,1.0151,1.0153,1.017,1.018,1.0192,1.0208,1.0214,1.015,1.015,1.0151,1.0152,0,0,0.9253,0.9388,0.9399,0.9446,0.9547,0.9599,0.9661,0.9744,0.9781,0.9852,0.9907,1.0005,1.0023,1.0074,1.0118,1.0155,1.0183,1.0169,1.0172,1.017,1.0257,1.0243,1.0249,1.0205,1.0206,1.0207,1.025,0,0.9281,0.9393,0.9454,0.9541,0.9603,0.9659,0.9713,0.9782,0.9833,0.9894,0.9952,1.0021,1.0038,1.007,1.0108,1.0171,1.0201,1.0169,1.0259,1.0261,1.0237,1.0257,1.0243,1.028,1.0257,1.0258,1.0258,0,0.9329,0.9399,0.9493,0.9589,0.9617,0.9664,0.9747,0.9804,0.9883,0.9919,0.9977,1.0021,1.009,1.0093,1.0191,1.0167,1.0208,1.0244,1.0247,1.0259,1.0261,1.0271,1.0293,1.0299,1.0269,1.0268,1.0267,0,0.9307,0.9425,0.9496,0.9535,0.9648,0.968,0.9729,0.9808,0.9855,0.9928,0.996,1.0039,1.0083,1.0144,1.0209,1.0205,1.0301,1.031,1.0334,1.0333,1.0353,1.0351,1.0382,1.0376,1.0376,1.0376,1.0376,0,0.9333,0.9388,0.9488,0.9532,0.9597,0.9666,0.9729,0.9782,0.9853,0.991,0.9963,1.0015,1.0098,1.0161,1.0213,1.0287,1.0306,1.0338,1.0351,1.0334,1.033,1.0362,1.0362,1.0377,1.0377,1.0377,1.0376,0,0.9318,0.9387,0.947,0.957,0.9597,0.964,0.9728,0.9774,0.9829,0.99,0.9921,1.0008,1.0085,1.0156,1.0259,1.0294,1.037,1.0386,1.0343,1.0351,1.0372,1.037,1.0427,1.0439,1.0422,1.0422,1.0422,0,0.9331,0.9375,0.9481,0.9523,0.9571,0.9637,0.9686,0.9757,0.9805,0.9901,0.9936,1.0017,1.0086,1.0208,1.0281,1.0361,1.038,1.0395,1.0393,1.0375,1.0383,1.038,1.0386,1.0394,1.0394,1.0394,1.0394,0,0.9347,0.9379,0.9447,0.9527,0.9583,0.965,0.9719,0.975,0.9835,0.9887,0.9967,1.002,1.0126,1.0208,1.0296,1.0348,1.0386,1.0394,1.0404,1.0388,1.0362,1.0378,1.0342,1.0392,1.0393,1.0393,1.0393,1.0393,0.9348,0.939,0.9472,0.9546,0.9605,0.9669,0.9718,0.9779,0.9847,0.9939,0.9977,1.0058,1.014,1.0263,1.0315,1.0381,1.0389,1.0403,1.0407,1.041,1.0408,1.035,1.0397,1.0397,1.0397,1.0397,1.0397,0,0.9368,0.9423,0.9491,0.9585,0.9644,0.9674,0.9752,0.98,0.9871,0.9944,1.0011,1.0104,1.0184,1.0263,1.0348,1.0386,1.0405,1.0406,1.0404,1.0416,1.0395,1.0378,1.0388,1.0388,1.0388,1.0388,1.0388,1.0388,0.9385,0.9459,0.9502,0.9607,0.9663,0.9743,0.9786,0.9845,0.9904,1.0006,1.0072,1.0123,1.02,1.029,1.0365,1.0387,1.0417,1.0412,1.0439,1.0417,1.0417,1.0417,1.0402,1.0418,1.0418,1.0455,1.0456,1.0456]}]]